User: anonymous   Login
Location: Zagreb
(45.8000°N, 16.0000°E)
Time: 23:05:16
(UTC+02:00)
Language:

N. Korean satellite - Orbit

View from above orbital plane
View from above orbital plane
View from above satellite
View from above satellite

Ground track
Ground track

The orbit data is extracted from the following two-line orbital elements,

1 39026U 12072A   22221.44139625  .00015753  00000-0  41718-3 0  9990
2 39026  97.2696 211.6097 0027919 332.4389  27.5374 15.38042495537124
Epoch (UTC): 09 August 2022 10:35:36
Eccentricity: 0.0027919
inclination: 97.2696°
perigee height: 433 km
apogee height: 471 km
right ascension of ascending node: 211.6097°
argument of perigee: 332.4389°
revolutions per day: 15.38042495
mean anomaly at epoch: 27.5374°
orbit number at epoch: 53712

The dashed part of the orbit path shows where the satellite is in the earth's shadow,  

DLR